Flag for Canada Weather past 2 weeks in Pond Inlet, Nunavut, Canada

-26 °F


Feels Like: -47 °F
Forecast: -19 / -16 °F
Wind: 9 mph from Southwest

Location: Pond Inlet

Current Time: Nov 28, 2015 at 10:49:28 PM

Latest Report: Nov 28, 2015 at 10:00 PM

Visibility: 9 mi

Pressure: 29.74 "Hg

Humidity: 75%

Dew point: -31 °F

Location of Pond InletLocation

Historic Weather in Pond Inlet — Graph


Pond Inlet temperature yesterday

Maximum temperature yesterday: -26 °F (at 4:00 AM)
Minimum temperature yesterday: -31 °F (at 5:00 PM)
Average temperature yesterday: -28 °F

Past Weeks' High & Low Weather Summary

High27 °F (Nov 19, 12:00 AM)100% (Nov 18, 9:00 AM)30.35 "Hg (Nov 18, 9:00 AM)
Low-31 °F (Nov 27, 5:00 PM)62% (Nov 14, 11:00 PM)29.04 "Hg (Nov 19, 1:00 AM)
Average-4 °F79%29.82 "Hg
* Reported Nov 13 9:00 PM — Nov 28 9:00 PM, Pond Inlet, Weather by CustomWeather, © 2015

Note: Actual official high and low records may vary slightly from our data, if they occured in-between our weather recording intervals... More about our weather records


Pond Inlet weather history for previous 24 hours

Time TempWeatherWind HumidityBarometerVisibility
9:00 PM
Sat, Nov 28
-26 °FClear.8 mph75%29.73 "Hg9 mi
8:00 PM-26 °FClear.9 mph67%29.74 "Hg9 mi
7:00 PM-26 °FClear.8 mph67%29.75 "Hg9 mi
6:00 PM-27 °FSunny.8 mph67%29.75 "Hg9 mi
5:00 PM-26 °FPassing clouds.9 mph67%29.76 "Hg15 mi
4:00 PM-26 °FPassing clouds.8 mph75%29.76 "Hg15 mi
3:00 PM-26 °FScattered clouds.6 mph75%29.76 "Hg25 mi
2:00 PM-22 °FScattered clouds.3 mph75%29.75 "Hg35 mi
1:00 PM-22 °FSunny.7 mph68%29.76 "Hg9 mi
12:00 PM-22 °FSunny.7 mph75%29.77 "Hg9 mi
11:00 AM-22 °FPartly sunny.7 mph75%29.78 "Hg9 mi
10:00 AM-20 °FOvercast.6 mph75%29.79 "Hg8 mi
9:00 AM-20 °FOvercast.6 mph75%29.80 "Hg8 mi
8:50 AM-20 °FOvercast.6 mph75%29.81 "Hg6 mi
8:00 AM-18 °FOvercast.5 mph75%29.82 "Hg9 mi
7:00 AM-20 °FOvercast.3 mph75%29.82 "Hg4 mi
6:55 AM-20 °FOvercast.3 mph68%29.82 "Hg5 mi
6:00 AM-20 °FMostly cloudy.5 mph75%29.83 "Hg5 mi
5:55 AM-22 °FMostly cloudy.5 mph75%29.83 "Hg5 mi
5:02 AM-22 °FLight snow. Mostly cloudy.6 mph75%29.84 "Hg3 mi
4:00 AM-22 °FLight snow. Mostly cloudy.6 mph75%29.84 "Hg5 mi
3:00 AM-22 °FOvercast.2 mph75%29.84 "Hg9 mi
2:00 AM-24 °FLight snow. Mostly cloudy.6 mph75%29.84 "Hg9 mi
1:00 AM-26 °FLight snow. Clear.5 mph75%29.85 "Hg9 mi
12:00 AM-26 °FSunny.5 mph67%29.86 "Hg9 mi
11:00 PM
Fri, Nov 27
-29 °FClear.7 mph74%29.86 "Hg9 mi
10:00 PM-27 °FClear.3 mph67%29.88 "Hg9 mi
Weather by CustomWeather, © 2015

See weather overviewHow to use our weather pages